Regional Weather Roundup
Issued by NWS

Home | Current Version | Previous Version | Graphics & Text | Print | Product List | Glossary On
Versions: 1 2 3 4 5 6 7 8 9 10 11 12 13 14 15 16 17 18 19 20 21 22 23 24 25 26 27 28 29 30 31 32 33 34 35 36 37 38 39 40 41 42 43 44 45 46 47 48 49 50
000
ASUS43 KOAX 311310
RWRNE

WEATHER ROUNDUP FOR NEBRASKA
NATIONAL WEATHER SERVICE OMAHA NE
800 AM CDT FRI OCT 31 2014

NOTES: SATELLITE DATA IS BEING USED TO AUGMENT CLOUD COVER ABOVE
       12000 FEET.
       "FAIR" INDICATES FEW OR NO CLOUDS BELOW 12,000 FEET WITH NO
       SIGNIFICANT WEATHER AND/OR OBSTRUCTIONS TO VISIBILITY.

  * THESE STATIONS DO NOT REPORT WEATHER SUCH AS RAIN...SNOW OR FOG.

NEZ001>004-019>022-054>056-311400-
NEBRASKA PANHANDLE

CITY           SKY/WX    TMP DP  RH WIND       PRES   REMARKS
SCOTTSBLUFF    PTCLDY    29  28  96 E13       30.39F WCI  19
ALLIANCE       FOG       29  28  96 SE13      30.42S VSB 3/4 WCI  19
CHADRON        CLOUDY    31  29  92 SE8       30.41S WCI  23
KIMBALL        PTCLDY    28  28  99 SE10      30.36S WCI  19
SIDNEY         CLOUDY    30  28  92 SE9       30.42S WCI  22
$$

NEZ057>060-069>072-079>082-311400-
SOUTHWEST NEBRASKA

CITY           SKY/WX    TMP DP  RH WIND       PRES   REMARKS
NORTH PLATTE   CLOUDY    29  25  85 E5        30.51S WCI  24
IMPERIAL       FOG       28  27  96 E5        30.50R VSB 1/2 WCI  23
LEXINGTON      CLOUDY    30  24  79 NE13      30.53S WCI  20
MCCOOK         CLOUDY    32  28  85 NE9       30.53R WCI  24
OGALLALA       CLOUDY    31  31  99 SE3       30.49S FOG
$$

NEZ005>010-023>029-035>040-094-311400-
NORTH CENTRAL NEBRASKA

CITY           SKY/WX    TMP DP  RH WIND       PRES   REMARKS
VALENTINE      PTCLDY    20  17  88 SE7       30.51F WCI  11
AINSWORTH      PTCLDY    21  18  88 E3        30.52S
BROKEN BOW     CLOUDY    28  21  75 NE8       30.53R WCI  20
O`NEILL        PTCLDY    19  18  96 N6        30.54F WCI  11
ORD            PTCLDY    23  19  85 N3        30.54R
THEDFORD       CLOUDY    29  26  85 CALM      30.51S
$$

NEZ041-046>049-061>064-073>077-083>087-311400-
SOUTH CENTRAL NEBRASKA

CITY           SKY/WX    TMP DP  RH WIND       PRES   REMARKS
GRAND ISLAND   PTCLDY    24  18  77 NE6       30.55F WCI  17
AURORA         CLEAR     24  18  75 N9        30.55S WCI  15
HASTINGS       PTCLDY    26  20  77 NE9       30.53S WCI  17
HEBRON         CLEAR     28  19  68 N7        30.54S WCI  21
HOLDREGE       CLOUDY    29  23  77 NE14      30.53R WCI  19
KEARNEY *      CLOUDY    28  21  74 N9        30.54S WCI  20
YORK           CLEAR     25  19  80 N7        30.55S WCI  17
$$

NEZ011>018-030>034-042>045-311400-
NORTHEAST NEBRASKA

CITY           SKY/WX    TMP DP  RH WIND       PRES   REMARKS
NORFOLK        CLEAR     23  19  85 NW5       30.56R WCI  17
ALBION         PTCLDY    21  15  79 CALM      30.56R
BLAIR          CLEAR     28  21  75 N13       30.52S WCI  17
FREMONT        CLEAR     27  21  79 N3        30.55S
TEKAMAH        CLEAR     27  19  72 N13       30.56S WCI  16
WAYNE          CLEAR     20  17  88 CALM      30.57S
$$

NEZ050>053-065>068-078-088>093-311400-
SOUTHEAST NEBRASKA

CITY           SKY/WX    TMP DP  RH WIND       PRES   REMARKS
LINCOLN        CLEAR     27  19  72 N8        30.57R WCI  19
OMAHA EPPLEY   CLEAR     28  21  75 N14       30.55R WCI  17
BEATRICE       CLEAR     25  21  85 N8        30.54R WCI  16
FALLS CITY     CLEAR     30  20  66 N10       30.50R WCI  21
NEBRASKA CITY  CLEAR     29  18  63 N9        30.52R WCI  21
PLATTSMOUTH    CLEAR     28  19  68 N8        30.52R WCI  20
$$

NEZ044-045-051>053-067-311400-
OMAHA AREA

CITY           SKY/WX    TMP DP  RH WIND       PRES   REMARKS
OMAHA EPPLEY   CLEAR     28  21  75 N14       30.55R WCI  17
BLAIR          CLEAR     28  21  75 N13       30.52S WCI  17
FREMONT        CLEAR     27  21  79 N3        30.55S
MILLARD        CLEAR     30  21  70 N7        30.54R WCI  23
OFFUTT AFB     CLEAR     29  20  70 N12G20    30.53R WCI  19
PLATTSMOUTH    CLEAR     28  19  68 N8        30.52R WCI  20
WAHOO          FAIR      26  20  80 N7        30.55R WCI  18
$$



USA.gov is the U.S. government's official web portal to all federal, state and local government web resources and services.